Temperature
13 13 12 12 12 12 12 12 12 12 12 12 12 12 11 11 10 10 10 9 9 9 9 9 9 9 9 9 9 9 10 10 10 10 11 11 10 10 10 10 10 10 10
13 13 13 12 12 12 12 12 12 12 12 12 12 12 11 10 9 9 9 9 9 8 8 8 8 8 8 9 9 9 9 9 10 10 10 11 11 11 11 11 10 10 10
13 13 13 12 12 12 12 12 12 12 12 12 11 11 11 10 9 8 8 8 8 8 8 8 8 8 8 8 8 8 8 9 9 9 10 10 10 10 10 10 10 10 10
13 13 13 12 12 12 12 12 12 12 12 11 11 10 10 10 9 8 8 8 8 8 7 8 8 8 8 8 8 8 8 8 8 8 8 8 9 9 9 9 9 9 9
13 13 13 12 12 12 12 12 12 11 11 11 11 10 10 9 9 8 8 7 7 7 7 7 7 7 7 7 7 7 7 7 7 7 7 7 7 7 7 7 7 7 6
13 13 13 12 12 12 12 12 11 11 11 11 11 10 10 9 9 8 7 7 7 7 7 6 7 7 6 6 6 6 6 6 6 6 6 5 5 5 5 5 5 5 4
13 13 13 12 12 12 12 11 11 11 11 10 10 10 9 8 8 8 7 7 6 6 5 6 6 6 6 6 6 6 5 5 5 5 4 4 4 4 4 4 4 3 3
13 13 12 12 12 12 11 11 11 10 10 10 10 9 8 8 7 7 7 7 6 5 5 5 5 5 5 5 5 5 4 4 4 3 3 2 2 2 3 2 2 2 2
13 13 12 12 12 11 11 11 10 10 10 9 9 9 8 7 7 7 6 5 5 5 5 4 4 4 4 4 4 4 3 3 2 1 0 0 0 1 0 0 0 1 1
13 12 12 11 11 11 11 10 10 10 9 9 9 8 7 6 6 6 5 5 4 4 4 3 3 3 3 3 2 2 2 1 -0 -1 -1 -1 -1 -1 -1 -1 -0 -0 -0
12 12 11 11 11 11 10 10 10 9 9 8 8 7 6 5 4 3 4 4 4 3 3 3 3 3 2 1 1 0 -0 -1 -2 -2 -2 -2 -2 -2 -2 -2 -1 -1 -1
12 11 11 11 10 10 10 10 9 9 8 8 7 6 6 4 3 3 2 3 3 3 3 3 2 1 1 -0 -1 -1 -2 -3 -3 -3 -3 -3 -3 -3 -3 -3 -3 -3 -2
11 11 11 10 10 10 9 9 9 8 8 7 6 6 5 4 3 2 2 1 1 2 2 2 1 0 -0 -1 -1 -2 -2 -4 -4 -4 -4 -4 -4 -4 -4 -4 -4 -4 -3
11 11 10 10 9 9 9 9 8 8 7 6 6 5 4 3 3 2 1 -0 -1 -1 -0 0 0 -1 -1 -2 -2 -3 -3 -4 -5 -5 -5 -5 -5 -5 -5 -5 -5 -4 -4
11 10 10 9 9 8 8 8 7 7 6 6 5 4 3 3 2 1 0 -1 -2 -4 -3 -2 -2 -3 -3 -3 -4 -4 -5 -5 -5 -5 -5 -5 -6 -5 -5 -5 -5 -5 -5
10 10 9 9 8 8 7 7 7 6 5 5 4 3 3 2 1 1 -0 -1 -2 -4 -5 -4 -4 -4 -5 -5 -5 -5 -6 -6 -6 -6 -6 -6 -6 -6 -6 -6 -6 -5 -5
10 9 9 8 8 7 7 6 6 5 4 4 3 2 2 1 0 -0 -1 -2 -3 -4 -5 -5 -5 -6 -6 -6 -6 -6 -7 -6 -7 -7 -7 -6 -6 -6 -6 -6 -6 -6 -6
9 8 8 7 7 7 6 5 5 4 3 3 2 2 1 0 -0 -1 -2 -3 -4 -5 -6 -7 -7 -7 -7 -7 -7 -7 -7 -7 -7 -7 -7 -7 -7 -6 -6 -6 -6 -6 -6
8 7 7 7 6 6 5 4 4 3 2 2 1 1 -0 -1 -1 -3 -4 -5 -6 -6 -7 -8 -8 -8 -7 -7 -8 -7 -7 -7 -7 -8 -7 -7 -7 -7 -7 -7 -6 -6 -6
7 7 6 6 5 4 4 3 3 2 2 1 1 -0 -1 -2 -3 -4 -5 -6 -7 -8 -8 -8 -8 -8 -8 -8 -8 -8 -8 -8 -8 -8 -8 -8 -7 -7 -7 -7 -7 -7 -7
6 6 5 5 4 3 3 2 2 1 1 1 -0 -1 -2 -3 -4 -6 -6 -7 -7 -8 -8 -8 -9 -9 -9 -8 -8 -8 -9 -9 -9 -8 -8 -8 -7 -7 -6 -6 -6 -7 -7
5 4 4 3 3 2 2 1 1 1 0 -0 -1 -2 -3 -4 -5 -6 -7 -7 -8 -8 -8 -9 -9 -9 -9 -9 -9 -9 -9 -9 -9 -8 -8 -8 -8 -7 -6 -7 -7 -7 -7
4 3 3 2 2 2 1 1 0 -0 -1 -1 -2 -3 -4 -5 -6 -7 -8 -8 -8 -9 -9 -9 -9 -9 -9 -9 -9 -9 -9 -9 -9 -9 -9 -9 -8 -8 -7 -8 -8 -7 -7
2 2 2 1 1 1 1 -0 -1 -1 -2 -2 -3 -5 -6 -7 -7 -8 -8 -9 -9 -9 -9 -9 -9 -9 -9 -9 -9 -9 -9 -9 -9 -8 -8 -9 -9 -8 -8 -7 -7 -7 -6
2 1 1 1 0 -0 -0 -1 -2 -2 -3 -4 -5 -6 -7 -8 -8 -8 -8 -9 -9 -9 -9 -9 -9 -9 -9 -8 -9 -9 -9 -9 -9 -9 -8 -9 -9 -9 -9 -7 -6 -6 -7
1 1 0 -0 -1 -1 -2 -2 -3 -4 -4 -5 -6 -6 -7 -8 -8 -9 -9 -9 -9 -9 -9 -9 -8 -8 -8 -8 -8 -9 -9 -10 -10 -10 -9 -9 -10 -11 -10 -8 -7 -6 -6
Wind_Speed
5 4 5 7 8 8 5 3 5 6 6 6 7 7 6 6 9 13 13 14 13 12 12 12 12 12 12 12 12 12 13 13 14 14 14 14 14 14 14 13 13 13 13
5 4 5 5 6 6 6 5 6 4 4 4 3 4 5 6 7 13 14 13 12 11 10 10 11 12 13 13 13 13 13 13 14 14 14 15 15 14 14 14 14 14 14
10 7 6 5 5 8 7 7 6 5 3 2 2 2 3 4 4 7 13 13 11 9 7 7 9 11 12 13 13 13 14 14 14 15 15 15 16 16 16 16 16 15 15
14 9 6 5 8 9 6 4 3 3 4 4 3 2 1 2 1 5 8 10 9 6 4 3 6 9 11 13 13 14 14 14 14 15 16 16 16 17 17 17 17 17 17
16 11 6 6 10 6 4 4 5 4 4 3 3 1 1 1 1 3 3 7 7 4 0 2 4 8 10 13 14 14 14 14 15 15 16 17 17 18 18 19 19 19 20
16 12 7 7 9 6 5 5 5 4 3 3 4 1 1 1 1 2 1 3 6 6 4 2 3 6 9 13 15 14 14 15 15 16 17 18 18 19 20 21 21 21 22
15 11 7 8 7 7 6 7 5 5 3 3 3 3 1 1 1 2 2 1 1 3 4 2 2 5 7 11 14 14 14 15 16 17 18 19 20 21 22 23 23 24 24
14 11 9 8 8 7 7 7 5 4 2 4 2 2 3 2 2 2 2 2 1 1 0 2 4 6 7 9 12 14 14 16 18 18 19 21 23 24 25 25 25 26 26
12 11 10 9 9 7 7 7 5 5 4 2 4 3 3 1 4 4 3 1 1 1 2 4 5 7 7 9 11 10 13 16 17 19 22 24 25 26 26 26 27 27 27
10 13 12 10 9 8 8 7 6 4 4 3 2 2 2 3 1 4 4 3 2 3 4 4 5 7 9 10 11 12 14 17 19 22 25 27 28 28 27 27 28 28 28
9 11 13 10 10 8 8 8 6 5 3 3 2 1 1 1 2 3 5 5 4 4 5 5 6 9 11 10 10 11 16 19 22 25 28 29 29 29 28 29 29 29 29
9 10 11 10 9 8 8 8 7 6 5 4 3 2 1 0 1 1 4 4 5 5 6 7 7 8 11 11 11 13 17 20 23 27 29 29 29 30 30 30 30 30 30
10 10 12 10 10 8 7 6 6 6 5 4 2 1 1 1 1 1 3 5 5 4 5 5 4 7 9 6 6 13 18 22 25 28 30 31 31 31 31 31 30 30 30
10 11 12 12 10 9 8 6 6 5 5 3 2 2 0 2 1 1 2 3 5 4 4 5 6 6 7 10 15 20 17 24 28 30 31 32 32 31 31 31 31 31 31
13 13 14 13 10 8 7 7 5 5 4 3 2 1 1 2 1 1 2 2 3 5 5 5 4 6 14 15 18 18 17 25 29 31 31 32 32 32 32 32 32 32 32
14 15 14 13 11 9 8 6 6 5 3 2 2 1 1 2 2 2 2 3 4 6 9 4 6 8 10 16 22 21 21 29 29 31 32 32 32 33 33 33 33 33 33
16 15 15 13 10 9 7 6 5 5 2 1 1 2 3 2 2 2 3 4 5 6 12 10 6 7 9 10 13 17 21 20 22 29 31 32 32 32 33 33 33 33 33
14 14 13 12 10 8 7 6 5 4 2 2 2 2 3 3 3 3 4 5 5 6 9 14 8 7 10 10 11 11 15 20 19 27 30 30 31 32 33 33 34 34 34
14 13 12 11 9 8 6 5 3 2 1 2 3 3 4 3 4 4 5 5 5 8 7 11 12 8 8 10 12 13 14 10 18 23 26 27 30 32 34 34 34 33 33
14 13 12 10 9 7 6 4 3 2 3 3 4 4 4 5 5 5 5 6 7 7 7 9 11 11 10 10 10 11 12 8 11 15 21 26 29 31 32 33 34 33 33
14 12 11 9 8 6 5 5 4 4 5 5 5 5 5 7 10 9 8 6 7 7 7 9 12 13 11 10 10 9 14 11 11 12 12 13 14 13 16 26 29 30 31
12 11 9 8 6 5 6 4 3 4 5 6 7 6 6 7 11 15 16 16 15 12 10 11 13 14 14 12 10 11 12 15 16 6 9 14 13 14 13 10 25 31 31
10 9 7 6 6 6 5 2 4 4 5 6 7 6 6 7 11 6 11 16 15 20 22 16 16 15 15 13 11 12 13 16 18 12 12 18 14 15 13 17 29 32 33
8 7 6 5 4 5 5 2 6 5 6 7 7 6 6 6 8 11 8 7 8 11 17 14 13 14 13 11 12 16 18 15 14 11 10 16 15 16 17 12 26 31 32
7 6 5 4 2 3 4 2 6 4 5 7 7 7 8 7 15 18 10 9 11 11 18 22 24 23 28 29 23 14 11 13 17 14 8 9 14 15 15 15 18 26 26
6 5 3 2 1 1 1 3 6 2 5 5 6 7 13 14 18 19 12 11 14 12 12 14 16 19 16 18 23 13 9 13 16 12 5 4 8 11 10 7 7 9 15
Wind_Direction
170 148 127 132 130 133 139 111 79 75 62 48 37 30 19 33 84 104 92 85 79 72 64 54 44 34 24 16 9 4 358 355 352 349 346 344 341 339 336 334 332 331 330
157 124 113 115 118 119 108 97 84 76 69 61 37 32 23 29 74 114 116 101 94 83 68 52 37 25 15 6 359 354 349 345 343 340 336 334 332 329 325 322 320 319 318
139 125 122 124 128 121 103 85 81 74 71 33 27 79 58 42 41 115 130 128 119 104 80 52 27 13 5 357 351 347 343 340 337 334 331 328 326 323 318 315 313 311 309
140 131 131 134 129 114 101 89 76 75 65 34 5 17 20 113 358 99 120 127 123 111 92 46 16 1 354 348 344 341 339 338 335 331 328 325 323 320 316 311 308 306 304
143 137 133 133 127 113 103 99 64 63 59 21 321 296 19 59 162 117 127 129 126 122 76 302 349 345 342 339 336 334 335 335 331 329 326 323 321 318 314 311 306 303 300
143 134 135 135 124 116 115 111 107 76 54 356 316 319 149 98 114 151 163 141 164 185 208 278 328 347 342 333 330 328 329 329 329 328 325 322 319 316 312 308 304 300 297
139 139 138 132 129 132 136 130 122 100 47 357 0 349 327 187 164 169 160 146 249 211 196 249 346 359 339 326 324 320 323 326 326 324 322 320 317 314 310 307 303 299 295
140 143 138 135 130 126 116 112 115 115 74 32 42 29 12 342 313 231 172 198 238 10 342 335 340 323 311 314 310 311 318 321 321 319 319 317 315 311 307 303 300 297 295
138 139 134 129 127 124 125 122 124 127 136 71 54 84 96 312 321 318 274 213 201 284 281 286 289 286 293 303 299 298 307 313 313 314 315 314 311 307 303 301 299 297 295
137 137 133 130 126 123 125 124 115 115 123 133 106 67 108 121 80 316 319 323 337 317 301 294 294 287 286 288 288 291 302 307 309 311 312 311 307 304 302 301 300 298 296
139 137 133 131 129 129 127 122 122 111 103 117 119 106 85 114 197 215 278 299 317 312 319 307 292 283 276 274 276 281 295 303 305 307 309 307 305 304 303 302 302 300 299
140 134 131 129 126 127 127 126 123 116 103 95 86 84 97 163 300 267 277 299 296 290 300 288 280 272 264 261 267 286 298 301 302 303 303 302 302 303 304 303 301 299 297
150 143 137 132 128 127 127 124 126 127 119 118 115 78 42 344 298 282 282 291 295 298 286 278 290 306 297 299 307 307 304 303 304 303 301 301 302 303 302 300 298 297 295
149 141 135 130 128 130 132 126 126 131 125 136 152 132 71 296 299 283 276 302 306 292 283 295 312 305 333 334 318 313 311 307 304 302 301 302 302 301 300 299 297 296 294
144 137 133 131 131 132 132 137 138 137 139 156 157 136 224 265 279 284 286 270 268 290 294 280 294 333 331 319 314 312 308 307 303 302 303 302 301 300 299 298 297 295 293
142 138 134 132 131 129 130 126 123 121 125 149 144 144 269 274 292 290 281 275 263 274 285 283 301 302 309 311 308 310 306 304 302 301 299 299 299 298 298 297 297 296 294
139 136 134 132 130 130 128 126 131 134 150 221 229 227 253 269 275 280 290 286 276 273 283 288 282 293 300 298 298 296 297 293 293 297 298 298 297 298 299 298 297 295 293
132 130 129 126 126 123 122 127 132 137 187 247 277 288 283 286 287 286 281 275 276 276 285 295 297 296 293 293 293 292 299 297 294 296 298 299 300 300 300 298 296 294 293
125 121 118 117 114 111 106 99 91 71 331 291 279 272 272 279 282 279 282 284 285 291 288 297 300 297 294 294 295 294 291 289 295 299 301 301 299 298 297 297 298 298 296
118 114 110 108 107 106 103 88 59 357 321 308 298 283 271 262 261 265 277 273 278 282 286 291 295 296 292 288 288 296 298 288 293 300 298 295 294 296 296 297 297 296 295
109 107 107 105 105 112 99 70 29 357 344 326 311 296 285 287 288 286 283 270 281 283 286 290 293 295 295 297 297 297 300 300 293 290 288 287 290 289 290 292 293 292 291
104 105 107 111 114 111 100 69 15 349 333 319 307 301 301 297 295 301 303 304 301 299 298 293 294 294 296 294 294 295 298 301 299 272 284 294 292 289 287 281 289 292 294
108 109 116 123 124 126 119 56 350 340 312 297 292 293 297 298 307 303 296 298 297 298 298 295 294 293 293 292 289 290 288 288 289 291 295 294 290 288 287 289 294 295 295
116 119 120 117 117 143 134 47 345 341 309 297 293 290 289 289 292 297 284 289 282 290 291 291 285 284 287 287 281 287 289 289 285 283 277 286 291 290 292 288 291 291 292
116 119 122 121 109 126 140 32 349 332 308 306 310 318 316 298 302 307 311 302 295 291 297 296 296 297 298 299 299 299 296 296 295 292 278 277 288 295 294 289 285 287 290
115 116 114 112 97 97 132 349 338 323 312 312 313 311 312 310 310 314 311 301 300 298 294 295 297 296 293 292 298 296 293 294 294 295 277 271 292 306 300 267 263 283 290
Height
1519 1521 1522 1524 1525 1526 1527 1527 1527 1527 1527 1527 1526 1526 1525 1525 1523 1522 1521 1521 1521 1521 1521 1521 1520 1519 1519 1518 1517 1516 1515 1514 1514 1513 1512 1512 1511 1511 1511 1511 1511 1511 1511
1518 1519 1521 1522 1524 1525 1525 1526 1526 1525 1525 1524 1524 1523 1523 1522 1521 1519 1519 1519 1519 1519 1519 1519 1518 1518 1517 1516 1515 1513 1512 1511 1510 1509 1508 1508 1507 1506 1506 1505 1505 1505 1505
1515 1517 1519 1521 1522 1523 1524 1524 1524 1523 1523 1522 1521 1520 1520 1520 1519 1518 1517 1516 1517 1517 1517 1517 1516 1515 1514 1513 1512 1510 1509 1508 1506 1505 1504 1503 1502 1501 1500 1500 1499 1499 1499
1512 1514 1516 1518 1520 1521 1521 1522 1522 1521 1521 1520 1519 1518 1518 1517 1517 1517 1516 1515 1514 1514 1514 1514 1514 1513 1511 1510 1508 1507 1505 1504 1502 1501 1499 1498 1497 1496 1495 1494 1493 1492 1492
1508 1511 1513 1515 1517 1518 1519 1520 1520 1519 1519 1518 1517 1516 1516 1515 1515 1515 1514 1513 1513 1513 1512 1511 1510 1509 1508 1506 1505 1503 1501 1499 1498 1496 1494 1493 1491 1490 1489 1488 1487 1486 1485
1505 1507 1510 1512 1514 1515 1517 1517 1518 1518 1517 1516 1515 1514 1514 1513 1513 1512 1512 1512 1511 1510 1509 1508 1507 1506 1504 1503 1501 1499 1497 1495 1493 1491 1489 1487 1486 1484 1483 1481 1480 1479 1478
1501 1504 1507 1509 1511 1512 1514 1515 1515 1516 1515 1515 1514 1513 1512 1511 1511 1510 1510 1510 1509 1508 1506 1505 1504 1502 1501 1499 1497 1494 1492 1490 1488 1486 1484 1482 1480 1478 1476 1475 1473 1472 1471
1497 1500 1503 1505 1507 1509 1511 1512 1513 1513 1513 1513 1512 1510 1510 1511 1509 1508 1508 1507 1507 1505 1504 1503 1501 1499 1496 1494 1492 1489 1487 1484 1482 1480 1478 1476 1474 1472 1469 1468 1466 1464 1463
1492 1496 1499 1502 1504 1506 1508 1509 1510 1511 1510 1510 1509 1510 1509 1508 1507 1506 1505 1504 1503 1502 1501 1499 1496 1494 1491 1489 1486 1484 1481 1478 1476 1474 1472 1470 1467 1464 1462 1460 1458 1457 1455
1488 1492 1495 1498 1500 1503 1505 1507 1507 1508 1508 1507 1507 1506 1507 1506 1505 1503 1502 1501 1500 1499 1497 1494 1492 1489 1486 1483 1481 1478 1475 1473 1470 1468 1465 1462 1459 1457 1455 1453 1450 1448 1446
1483 1487 1491 1494 1497 1499 1502 1503 1504 1505 1505 1504 1504 1503 1502 1502 1501 1500 1497 1495 1495 1493 1491 1489 1486 1483 1480 1478 1475 1472 1470 1467 1464 1461 1458 1455 1452 1449 1447 1444 1442 1439 1437
1477 1482 1486 1490 1493 1496 1498 1500 1501 1502 1502 1501 1501 1500 1500 1499 1498 1497 1494 1490 1487 1485 1484 1482 1479 1477 1474 1471 1469 1466 1464 1461 1458 1454 1451 1448 1445 1442 1439 1435 1432 1430 1427
1470 1476 1481 1485 1489 1492 1495 1496 1498 1498 1498 1498 1498 1497 1496 1495 1494 1493 1490 1486 1482 1478 1476 1475 1474 1472 1470 1467 1464 1461 1457 1454 1450 1447 1443 1440 1437 1433 1429 1426 1423 1421 1418
1466 1471 1476 1481 1485 1489 1491 1493 1494 1494 1494 1494 1494 1493 1492 1492 1490 1489 1486 1483 1477 1472 1470 1468 1467 1466 1464 1461 1458 1454 1450 1446 1442 1438 1435 1431 1427 1424 1420 1417 1414 1411 1408
1461 1467 1472 1478 1482 1485 1488 1489 1490 1490 1490 1490 1489 1488 1488 1487 1485 1484 1482 1479 1476 1468 1462 1460 1460 1459 1457 1454 1450 1446 1441 1437 1434 1430 1426 1422 1418 1415 1411 1408 1404 1401 1398
1458 1463 1469 1475 1479 1482 1484 1486 1486 1487 1487 1486 1485 1484 1483 1482 1480 1478 1476 1474 1471 1467 1460 1454 1454 1453 1449 1446 1443 1438 1433 1429 1425 1421 1417 1414 1410 1406 1402 1399 1395 1391 1388
1455 1461 1467 1472 1476 1479 1481 1482 1483 1483 1482 1482 1480 1479 1478 1476 1474 1472 1470 1468 1465 1462 1455 1448 1448 1445 1442 1438 1433 1430 1425 1421 1417 1413 1410 1406 1402 1398 1394 1390 1385 1382 1378
1454 1460 1465 1470 1474 1476 1478 1479 1479 1479 1478 1477 1476 1474 1473 1471 1469 1467 1464 1461 1459 1456 1451 1443 1440 1437 1434 1430 1425 1421 1418 1414 1409 1405 1402 1398 1394 1389 1385 1380 1376 1373 1369
1453 1459 1464 1468 1471 1473 1475 1475 1475 1475 1474 1472 1471 1469 1467 1465 1463 1461 1458 1455 1453 1449 1446 1440 1433 1430 1426 1423 1418 1413 1410 1406 1402 1397 1393 1389 1384 1379 1375 1371 1367 1363 1359
1453 1457 1462 1466 1468 1470 1471 1472 1471 1471 1469 1468 1466 1464 1462 1460 1457 1455 1452 1449 1446 1443 1439 1434 1428 1423 1419 1416 1412 1407 1400 1397 1393 1388 1384 1379 1374 1370 1365 1361 1357 1352 1348
1453 1457 1461 1464 1466 1467 1468 1468 1467 1466 1465 1463 1461 1459 1457 1455 1452 1450 1447 1444 1441 1437 1433 1428 1422 1417 1412 1409 1406 1401 1395 1388 1383 1380 1373 1369 1364 1359 1354 1350 1346 1341 1338
1453 1456 1460 1462 1463 1464 1464 1463 1463 1462 1460 1458 1456 1454 1451 1449 1446 1444 1442 1439 1436 1432 1427 1423 1417 1412 1407 1404 1399 1395 1390 1382 1373 1371 1366 1359 1356 1349 1345 1340 1336 1333 1329
1453 1456 1459 1460 1460 1461 1460 1459 1458 1457 1455 1453 1450 1448 1445 1443 1441 1437 1434 1432 1429 1426 1423 1419 1411 1406 1401 1397 1393 1388 1383 1376 1369 1364 1360 1350 1346 1339 1335 1331 1327 1323 1319
1452 1455 1456 1457 1457 1457 1457 1455 1454 1452 1450 1448 1445 1443 1440 1437 1435 1432 1429 1425 1421 1418 1415 1410 1406 1400 1396 1391 1387 1382 1376 1369 1361 1357 1354 1344 1336 1330 1324 1319 1316 1312 1308
1452 1453 1454 1455 1454 1454 1453 1451 1449 1447 1445 1443 1440 1438 1435 1432 1429 1427 1423 1418 1413 1409 1406 1403 1399 1394 1390 1385 1381 1376 1369 1362 1353 1347 1345 1339 1329 1321 1312 1307 1304 1301 1297
1451 1452 1452 1452 1452 1451 1449 1447 1445 1442 1440 1437 1435 1432 1429 1426 1424 1421 1417 1412 1406 1402 1398 1394 1390 1386 1382 1377 1373 1369 1363 1357 1348 1339 1335 1331 1323 1317 1301 1292 1292 1289 1286